Location: Boitzum
(52.1496°N, 9.6943°E)
Time: 06:39:55
(UTC+00:00)

ARIANE 5 R/B - Pass Details

Date: 13 January 2026
Orbit: 746 x 793 km, 98.8° (Epoch: 18 February)

Event Time Altitude Azimuth Distance (km) Brightness Sun altitude
Rises 06:11:25 0° 16° (NNE) 3,283 5.7 -10.7°
Reaches altitude 10° 06:13:45 10° 18° (NNE) 2,344 5.0 -10.4°
Maximum altitude 06:18:56 79° 105° (ESE) 793 2.7 -9.6°
Drops below altitude 10° 06:24:00 10° 192° (SSW) 2,296 5.1 -8.9°
Sets 06:26:17 0° 194° (SSW) 3,211 5.9 -8.6°
